Location: ????? ????
(37.9717°N, 23.4051°E)
Time: 19:52:55
(UTC+00:00)

IRS-1C Rocket - Pass Details

Date: 18 April 2024
Orbit: 799 x 806 km, 98.8° (Epoch: 27 May)

Event Time Altitude Azimuth Distance (km) Brightness Sun altitude
Exits shadow 19:42:47 57° 230° (SW) 944 4.4 -27.8°
Maximum altitude 19:43:19 60° 258° (WSW) 917 4.4 -27.9°
Drops below altitude 10° 19:48:33 10° 339° (NNW) 2,393 7.3 -28.6°
Sets 19:50:56 0° 343° (NNW) 3,328 8.2 -29.0°
